Regional Weather Roundup
Issued by NWS

Home | Current Version | Previous Version | Graphics & Text | Print | Product List | Glossary On
Versions: 1 2 3 4 5 6 7 8 9 10 11 12 13 14 15 16 17 18 19 20 21 22 23 24 25 26 27 28 29 30 31 32 33 34 35 36 37 38 39 40 41 42 43 44 45 46 47 48 49 50
000
ASUS43 KOAX 072202
RWRNE

WEATHER ROUNDUP FOR NEBRASKA
NATIONAL WEATHER SERVICE OMAHA NE
400 PM CST WED DEC 07 2016

NOTES: SATELLITE DATA IS BEING USED TO AUGMENT CLOUD COVER ABOVE
       12000 FEET.
       "FAIR" INDICATES FEW OR NO CLOUDS BELOW 12,000 FEET WITH NO
       SIGNIFICANT WEATHER AND/OR OBSTRUCTIONS TO VISIBILITY.

  * THESE STATIONS DO NOT REPORT WEATHER SUCH AS RAIN...SNOW OR FOG.

NEZ001>004-019>022-054>056-072300-
NEBRASKA PANHANDLE

CITY           SKY/WX    TMP DP  RH WIND       PRES   REMARKS
SCOTTSBLUFF    SUNNY     13  -1  54 NW18      30.34R WCI  -4
ALLIANCE       MOSUNNY   14  -1  51 N13       30.30R WCI   0
CHADRON        SUNNY     12  -4  48 W23G32    30.38R WCI  -7
KIMBALL        SUNNY     10   2  70 NW8       30.27R WCI  -2
SIDNEY         MOSUNNY   13   2  61 N14       30.30R WCI  -2
$$

NEZ057>060-069>072-079>082-072300-
SOUTHWEST NEBRASKA

CITY           SKY/WX    TMP DP  RH WIND       PRES   REMARKS
NORTH PLATTE   MOSUNNY   22   3  44 NW12      30.34R WCI  10
IMPERIAL       LGT SNOW  16   8  71 NW14      30.34R WCI   2
LEXINGTON      MOSUNNY   23   3  42 NW16      30.35R WCI   9
MCCOOK         CLOUDY    19   9  65 NW10      30.37R WCI   7
OGALLALA       CLOUDY    18   9  66 NW7       30.34R WCI   9
$$

NEZ005>010-023>029-035>040-094-072300-
NORTH CENTRAL NEBRASKA

CITY           SKY/WX    TMP DP  RH WIND       PRES   REMARKS
VALENTINE      CLEAR     15   0  51 NW17G30   30.35R WCI  -1
AINSWORTH      CLEAR     16   3  55 NW20G25   30.34R WCI  -1
BROKEN BOW     CLEAR     20   1  43 NW17      30.33R WCI   5
O`NEILL        CLEAR     19   4  52 NW17G24   30.34R WCI   3
ORD            CLEAR     20   0  41 NW16      30.34R WCI   6
THEDFORD       CLEAR     19   2  48 NW18G25   30.33R WCI   3
$$

NEZ041-046>049-061>064-073>077-083>087-072300-
SOUTH CENTRAL NEBRASKA

CITY           SKY/WX    TMP DP  RH WIND       PRES   REMARKS
GRAND ISLAND   CLEAR     22   3  44 NW14      30.35R WCI   9
AURORA         CLEAR     24   3  41 NW15      30.35R WCI  11
HASTINGS       CLEAR     23   2  40 N15       30.36R WCI  10
HEBRON         MOCLDY    26   6  43 NW13      30.37R WCI  15
HOLDREGE       MOSUNNY   22   3  43 NW13G21   30.34R WCI  10
KEARNEY *      PTCLDY    23   0  36 NW13G21   30.35R WCI  11
YORK           CLEAR     25   5  42 NW14      30.35R WCI  13
$$

NEZ011>018-030>034-042>045-072300-
NORTHEAST NEBRASKA

CITY           SKY/WX    TMP DP  RH WIND       PRES   REMARKS
NORFOLK        CLEAR     20   2  45 W18       30.32R WCI   5
ALBION         CLEAR     21   2  44 NW18G24   30.34R WCI   6
BLAIR          CLEAR     24   8  51 W13G20    30.31R WCI  12
FREMONT        CLEAR     24   7  49 W16G22    30.34R WCI  11
TEKAMAH        CLEAR     24   8  50 NW18G24   30.34R WCI  10
WAYNE          CLEAR     20   4  50 W20G25    30.32R WCI   4
$$

NEZ050>053-065>068-078-088>093-072300-
SOUTHEAST NEBRASKA

CITY           SKY/WX    TMP DP  RH WIND       PRES   REMARKS
LINCOLN        CLEAR     26   5  40 NW16      30.37R WCI  14
OMAHA EPPLEY   MOCLDY    24   7  48 NW20      30.34R WCI  10
BEATRICE       CLEAR     26   7  45 NW15G23   30.36R WCI  13
FALLS CITY     PTCLDY    26   8  46 NW17G23   30.35R WCI  13
NEBRASKA CITY  PTCLDY    25   3  40 NW16      30.34R WCI  12
PLATTSMOUTH    MOCLDY    25   4  40 NW16      30.33R WCI  12
$$

NEZ044-045-051>053-067-072300-
OMAHA AREA

CITY           SKY/WX    TMP DP  RH WIND       PRES   REMARKS
OMAHA EPPLEY   MOCLDY    24   7  48 NW20      30.34R WCI  10
BLAIR          CLEAR     24   8  51 W13G20    30.31R WCI  12
FREMONT        CLEAR     24   7  49 W16G22    30.34R WCI  11
MILLARD        PTCLDY    25   7  45 NW16G22   30.35R WCI  13
OFFUTT AFB     PTCLDY    25   6  44 NW15G24   30.34R WCI  13
PLATTSMOUTH    MOCLDY    25   4  40 NW16      30.33R WCI  12
WAHOO          FAIR      24   6  44 NW14G20   30.35R WCI  12
$$




USA.gov is the U.S. government's official web portal to all federal, state and local government web resources and services.